sat.trackr.live / text

‹ back to catalog

STARLINK-11431 [DTC]

NORAD 62890 · 2025-024M

PAYLOAD ACTIVE UNKNOWN

§ Identity

Operator
Country
US
Launch date
2025-02-04
Launch site
AFETR
Launch vehicle
Mass (kg)
RCS (m²)

Purposes: comms

External: N2YO · Heavens-Above · Gunter

§ Orbital elements

Epoch: 2026-09-21T19:01:47.407584Z

Period
91.66 min
Inclination
43.0006°
Eccentricity
0.0001141
Mean motion
15.70949109 rev/d
Perigee alt
355.4 km
Apogee alt
357.0 km
Semi-major
6,734.3 km
B*
1.6991e-3
RAAN
79.8470°
Arg perigee
256.5044°
Mean anomaly
103.5697°
Rev number
9,430

§ Raw data

STARLINK-11431 [DTC]1 62890U 25024M   26264.79290981  .00224595  00000+0  16991-2 0  99972 62890  43.0006  79.8470 0001141 256.5044 103.5697 15.70949109 94300

JSON: /api/v1/satellites/62890 · /tle

For live sub-satellite position, see the globe view (requires WebGL).

§ Visibility from observer

Set your observer location to see the next 7 days of passes ≥ 10°. The values pass through the URL so the page stays shareable.

No JS? Fill the form by hand. The geolocation button needs JavaScript.